Location: Passau
(48.5830°N, 13.4830°E)
Time: 10:50:05
(UTC+02:00)

ISS - Visible Passes

Search period start: 23 September 2023 00:00
Search period end: 03 October 2023 00:00
Orbit: 414 x 422 km, 51.6° (Epoch: 23 September)

Date Brightness Start Highest point End Pass type
(mag) Time Alt. Az. Time Alt. Az. Time Alt. Az.
23 Sep -3.3 20:51:58 10° WNW 20:55:15 51° N 20:55:41 47° NE visible
24 Sep -3.1 20:03:55 10° WNW 20:07:11 48° N 20:09:28 17° ENE visible
24 Sep -1.6 21:40:47 10° WNW 21:42:23 26° WNW 21:42:23 26° WNW visible
25 Sep -3.8 20:52:46 10° WNW 20:56:06 72° NNE 20:56:09 72° NNE visible
26 Sep -3.5 20:04:41 10° WNW 20:08:01 58° NNE 20:09:54 23° E visible
26 Sep -1.2 21:41:33 10° WNW 21:42:49 20° W 21:42:49 20° W visible
27 Sep -3.5 20:53:24 10° WNW 20:56:34 62° SW 20:56:34 62° SW visible
28 Sep -3.8 20:05:17 10° WNW 20:08:38 88° SSW 20:10:21 27° ESE visible
28 Sep -0.8 21:42:32 10° W 21:43:16 14° W 21:43:16 14° W visible
29 Sep -3.7 19:17:08 10° WNW 19:20:29 71° NNE 19:23:49 10° ESE visible
29 Sep -2.3 20:54:06 10° W 20:57:04 29° SW 20:57:04 29° SW visible
30 Sep -2.9 20:05:47 10° WNW 20:09:00 44° SSW 20:10:55 21° SSE visible
01 Oct -3.5 19:17:32 10° WNW 19:20:52 65° SSW 19:24:10 10° SE visible
01 Oct -1.2 20:55:23 10° WSW 20:57:06 13° SW 20:57:44 13° SSW visible
02 Oct -1.5 20:06:31 10° W 20:09:05 21° SW 20:11:38 10° S visible
